Flag for Sweden Weather past 2 weeks in Karlstad, Sweden

Now
36 °F

Scattered clouds.


Feels Like: 27 °F
Forecast: 36 / 38 °F
Wind: 13 mph from Southeast

Location: Karlstad

Current Time: Mar 1, 2015 at 8:05:24 AM

Latest Report: Mar 1, 2015 at 7:20 AM


Visibility: N/A

Pressure: 29.39 "Hg

Humidity: 81%

Dew point: 30 °F

Location of KarlstadLocation

Historic Weather in Karlstad — Graph

°F

Karlstad temperature yesterday

Maximum temperature yesterday: 39 °F (at 12:50 PM)
Minimum temperature yesterday: 32 °F (at 12:20 AM)
Average temperature yesterday: 35 °F

Past Weeks' High & Low Weather Summary

 TemperatureHumidityPressure
High43 °F (Feb 18, 11:50 AM)100% (Feb 17, 9:50 AM)30.54 "Hg (Feb 17, 9:50 AM)
Low27 °F (Feb 15, 8:50 PM)56% (Feb 22, 1:50 PM)29.09 "Hg (Feb 23, 2:50 PM)
Average35 °F90%29.79 "Hg
* Reported Feb 14 6:20 AM — Mar 1 6:50 AM, Karlstad, Weather by CustomWeather, © 2015

Note: Actual official high and low records may vary slightly from our data, if they occured in-between our weather recording intervals... More about our weather records

Advertising

Karlstad weather history for previous 24 hours

 ConditionsComfort  
Time TempWeatherWind HumidityBarometerVisibility
6:50 AM
Sun, Mar 1
36 °FPartly cloudy.15 mph81%29.42 "HgN/A
6:20 AM36 °FPassing clouds.16 mph81%29.42 "HgN/A
5:50 AM36 °FPassing clouds.17 mph87%29.45 "HgN/A
5:20 AM36 °FPassing clouds.15 mph87%29.45 "HgN/A
4:50 AM36 °FPartly cloudy.17 mph87%29.47 "HgN/A
4:20 AM36 °FPartly cloudy.18 mph87%29.47 "HgN/A
3:50 AM36 °FPassing clouds.16 mph87%29.50 "HgN/A
3:20 AM36 °FPassing clouds.16 mph87%29.53 "HgN/A
2:50 AM36 °FPassing clouds.16 mph87%29.53 "HgN/A
2:20 AM36 °FPassing clouds.16 mph87%29.56 "HgN/A
1:50 AM36 °FPassing clouds.14 mph87%29.56 "HgN/A
1:20 AM36 °FOvercast.14 mph87%29.59 "HgN/A
12:50 AM37 °FOvercast.18 mph81%29.59 "HgN/A
12:20 AM37 °FPassing clouds.20 mph81%29.59 "HgN/A
11:50 PM
Sat, Feb 28
37 °FOvercast.20 mph81%29.62 "HgN/A
11:20 PM36 °FDrizzle. Overcast.16 mph93%29.62 "HgN/A
10:50 PM36 °FOvercast.16 mph87%29.65 "HgN/A
10:20 PM36 °FOvercast.13 mph87%29.65 "HgN/A
9:50 PM36 °FLight rain. Overcast.13 mph87%29.65 "HgN/A
9:20 PM36 °FDrizzle. Overcast.14 mph87%29.68 "HgN/A
8:50 PM36 °FDrizzle. Overcast.14 mph87%29.68 "HgN/A
8:20 PM36 °FDrizzle. Overcast.15 mph87%29.71 "HgN/A
7:50 PM36 °FDrizzle. Overcast.15 mph87%29.71 "HgN/A
7:20 PM36 °FMostly cloudy.17 mph87%29.71 "HgN/A
6:50 PM36 °FPassing clouds.15 mph87%29.74 "HgN/A
6:20 PM36 °FPartly cloudy.15 mph87%29.74 "HgN/A
5:50 PM36 °FPassing clouds.14 mph87%29.74 "HgN/A
5:20 PM37 °FScattered clouds.16 mph81%29.74 "HgN/A
4:50 PM37 °FScattered clouds.16 mph81%29.74 "HgN/A
4:20 PM37 °FPassing clouds.17 mph81%29.74 "HgN/A
3:50 PM37 °FPartly sunny.15 mph81%29.74 "HgN/A
3:20 PM37 °FBroken clouds.17 mph81%29.77 "HgN/A
2:50 PM37 °FPartly sunny.16 mph81%29.77 "HgN/A
2:20 PM39 °FPartly sunny.15 mph81%29.77 "HgN/A
1:50 PM39 °FMore clouds than sun.13 mph81%29.80 "HgN/A
1:20 PM37 °FPartly sunny.17 mph81%29.80 "HgN/A
12:50 PM39 °FChilly.15 mph81%29.80 "HgN/A
12:20 PM37 °FScattered clouds.13 mph87%29.80 "HgN/A
11:50 AM36 °FOvercast.13 mph93%29.83 "HgN/A
11:20 AM36 °FPartly sunny.14 mph93%29.83 "HgN/A
10:50 AM36 °FLow clouds.12 mph93%29.83 "HgN/A
10:20 AM36 °FMore clouds than sun.10 mph93%29.83 "HgN/A
9:50 AM36 °FLight rain. Cloudy.12 mph93%29.86 "HgN/A
9:20 AM36 °FCloudy.9 mph93%29.86 "HgN/A
8:50 AM34 °FMostly cloudy.10 mph100%29.86 "HgN/A
8:20 AM34 °FMostly cloudy.9 mph100%29.86 "HgN/A
Weather by CustomWeather, © 2015

See weather overviewHow to use our weather pages